User: anonymous   Login
Location: Unspecified
(0.0000°N, 0.0000°E)
Time: 18:47:21
(UTC+00:00)
Language:

Kosmos-2100 - Orbit

View from above orbital plane
View from above orbital plane
View from above satellite
View from above satellite

Ground track
Ground track

The orbit data is extracted from the following two-line orbital elements,

1 20804U 90083A   19077.66090185  .00000046  00000-0  31904-4 0  9994
2 20804  82.9412 327.9787 0038186  95.7329 293.4786 13.74322501429828
Epoch (UTC): 18 March 2019 15:51:41
Eccentricity: 0.0038186
inclination: 82.9412°
perigee height: 956 km
apogee height: 1012 km
right ascension of ascending node: 327.9787°
argument of perigee: 95.7329°
revolutions per day: 13.74322501
mean anomaly at epoch: 293.4786°
orbit number at epoch: 42982

The dashed part of the orbit path shows where the satellite is in the earth's shadow,  

DLR